Faro, Portugal

8:01 PM WEST on June 22, 2018 (GMT +0100)
Faro

Weather History for LPFR - September, 2017

Change the Weather History Date:

Wednesday, September 13, 2017

  Actual Average Record
Temperature  
Mean Temperature 74 °F -  
Max Temperature 83 °F 74 °F 91 °F (1998)
Min Temperature 66 °F 61 °F 57 °F (1996)
Cooling Degree Days 10    
Growing Degree Days 24 (Base 50)    
Moisture  
Dew Point 61 °F    
Average Humidity 61    
Maximum Humidity 88    
Minimum Humidity 26    
Precipitation  
Precipitation 0.00 in 0.05 in - ()
Sea Level Pressure  
Sea Level Pressure 30.10 in    
Wind  
Wind Speed 5 mph ()    
Max Wind Speed 12 mph    
Max Gust Speed -    
Visibility 12.0 miles    
Events      
Averages and records for this station are not official NWS values.
T = Trace of Precipitation, MM = Missing Value Source: Averaged Metar Reports

Daily Weather History Graph

Daily Weather History Graph

Search for Another Location

Airport or City:

Astronomy

Sep. 13, 2017 Rise Set
Actual Time 7:12 AM WEST 7:42 PM WEST
Civil Twilight 6:46 AM WEST 8:08 PM WEST
Nautical Twilight 6:15 AM WEST 8:39 PM WEST
Astronomical Twilight 5:44 AM WEST 9:10 PM WEST
Moon 12:10 AM WEST (9/13) 2:37 PM WEST (9/13)
Length of Visible Light 13h 22m
Length of Day
12h 29m
Waning Gibbous, 48% of the Moon is Illuminated
Sep 13
Waning Gibbous
Sep 20
New
Sep 28
First Quarter
Oct 5
Full
Oct 12
Last Quarter

Hourly Weather History & Observations

Time (WEST) Temp. Heat Index Dew Point Humidity Pressure Visibility Wind Dir Wind Speed Gust Speed Precip Events Conditions
12:00 AM 80 °F - 51 °F 26% 30.07 in - NNW 6.7 mph - -  
12:00 AM 78.8 °F - 51.8 °F 39% 30.04 in - NNW 9.2 mph - N/A   Clear
12:30 AM 78.8 °F - 53.6 °F 42% 30.04 in - NNW 8.1 mph - N/A   Clear
1:00 AM 78 °F - 52 °F 30% 30.08 in 12 mi NNE 2.2 mph - -   Clear
1:00 AM 77.0 °F - 53.6 °F 44% 30.06 in - North 3.5 mph - N/A   Clear
1:30 AM 77.0 °F - 53.6 °F 44% 30.06 in - Calm Calm - N/A   Clear
2:00 AM 77 °F - 53 °F 33% 30.08 in - North 4.5 mph - -  
2:00 AM 77.0 °F - 53.6 °F 44% 30.06 in - NNE 4.6 mph - N/A   Clear
2:30 AM 75.2 °F - 53.6 °F 47% 30.06 in - North 5.8 mph - N/A   Clear
3:00 AM 71 °F - 55 °F 48% 30.07 in - Calm Calm - -  
3:00 AM 73.4 °F - 57.2 °F 57% 30.04 in - Calm Calm - N/A   Clear
3:30 AM 69.8 °F - 57.2 °F 64% 30.04 in - Calm Calm - N/A   Clear
4:00 AM 71 °F - 54 °F 44% 30.06 in 12 mi Calm Calm - -   Clear
4:00 AM 68.0 °F - 57.2 °F 68% 30.04 in - Calm Calm - N/A   Clear
4:30 AM 68.0 °F - 55.4 °F 64% 30.04 in - Calm Calm - N/A   Clear
5:00 AM 68 °F - 56 °F 56% 30.07 in - Calm Calm - -  
5:00 AM 68.0 °F - 59.0 °F 73% 30.04 in - Calm Calm - N/A   Clear
5:30 AM 66.2 °F - 57.2 °F 73% 30.04 in - Calm Calm - N/A   Clear
6:00 AM 70 °F - 54 °F 47% 30.08 in - Calm Calm - -  
6:00 AM 68.0 °F - 57.2 °F 68% 30.04 in - Calm Calm - N/A   Clear
6:30 AM 68.0 °F - 55.4 °F 64% 30.04 in - Calm Calm - N/A   Clear
7:00 AM 71.6 °F - 57.2 °F 60% 30.06 in - East 4.6 mph - N/A   Clear
7:30 AM 69.8 °F - 59.0 °F 68% 30.06 in - East 4.6 mph - N/A   Clear
8:00 AM 71 °F - 59 °F 56% 30.11 in - SE 2.2 mph - -  
8:00 AM 69.8 °F - 60.8 °F 73% 30.06 in - Variable 2.3 mph - N/A   Clear
8:30 AM 71.6 °F - 64.4 °F 78% 30.09 in - Variable 2.3 mph - N/A   Clear
9:00 AM 73 °F - 62 °F 60% 30.13 in - ESE 6.7 mph - -  
9:00 AM 71.6 °F - 64.4 °F 78% 30.09 in - ESE 6.9 mph - N/A   Clear
9:30 AM 75.2 °F - 64.4 °F 69% 30.09 in - ESE 8.1 mph - N/A   Clear
10:00 AM 80 °F - 57 °F 35% 30.14 in 12 mi East 11.2 mph - -   Clear
10:00 AM 78.8 °F - 59.0 °F 51% 30.12 in - East 9.2 mph - N/A   Clear
10:30 AM 80.6 °F 81.5 °F 60.8 °F 51% 30.12 in - East 11.5 mph - N/A   Clear
11:00 AM 79 °F - 63 °F 49% 30.17 in - ESE 11.2 mph - -  
11:00 AM 78.8 °F - 64.4 °F 61% 30.12 in - ESE 11.5 mph - N/A   Clear
11:30 AM 78.8 °F - 64.4 °F 61% 30.15 in - ESE 11.5 mph - N/A   Clear
12:00 PM 80 °F - 64 °F 50% 30.17 in - ESE 11.2 mph - -  
12:00 PM 80.6 °F 82.7 °F 66.2 °F 61% 30.15 in - ESE 11.5 mph - N/A   Clear
12:30 PM 80.6 °F 82.7 °F 66.2 °F 61% 30.15 in - ESE 11.5 mph - N/A   Clear
1:00 PM 81 °F - 64 °F 47% 30.17 in 12 mi ESE 8.9 mph - -   Clear
1:00 PM 82.4 °F 84.6 °F 66.2 °F 58% 30.15 in - ESE 10.4 mph - N/A   Clear
1:30 PM 82.4 °F 84.6 °F 66.2 °F 58% 30.12 in - ESE 9.2 mph - N/A   Clear
2:00 PM 80 °F - 64 °F 48% 30.16 in - South 8.9 mph - -  
2:00 PM 80.6 °F 82.3 °F 64.4 °F 58% 30.12 in - SSE 10.4 mph - N/A   Clear
2:30 PM 80.6 °F 82.3 °F 64.4 °F 58% 30.12 in - South 6.9 mph - N/A   Clear
3:00 PM 80.6 °F 82.3 °F 64.4 °F 58% 30.12 in - South 6.9 mph - N/A   Clear
3:30 PM 78.8 °F - 64.4 °F 61% 30.12 in - SW 6.9 mph - N/A   Clear
4:00 PM 80 °F - 65 °F 50% 30.13 in 12 mi WSW 8.9 mph - -   Clear
4:00 PM 80.6 °F 82.7 °F 66.2 °F 61% 30.09 in - WSW 9.2 mph - N/A   Clear
4:30 PM 78.8 °F - 66.2 °F 65% 30.09 in - WSW 9.2 mph - N/A   Clear
5:00 PM 78 °F - 65 °F 57% 30.13 in - West 11.2 mph - -  
5:00 PM 78.8 °F - 66.2 °F 65% 30.09 in - WSW 11.5 mph - N/A   Clear
5:30 PM 77.0 °F - 66.2 °F 69% 30.09 in - West 10.4 mph - N/A   Clear
6:00 PM 77 °F - 64 °F 56% 30.12 in - West 11.2 mph - -  
6:00 PM 77.0 °F - 66.2 °F 69% 30.09 in - West 11.5 mph - N/A   Clear
6:30 PM 75.2 °F - 66.2 °F 73% 30.09 in - West 11.5 mph - N/A   Clear
7:00 PM 74 °F - 64 °F 62% 30.12 in 12 mi West 8.9 mph - -   Clear
7:00 PM 73.4 °F - 64.4 °F 73% 30.09 in - West 10.4 mph - N/A   Clear
7:30 PM 71.6 °F - 64.4 °F 78% 30.09 in - West 9.2 mph - N/A   Clear
8:00 PM 72 °F - 62 °F 63% 30.12 in - West 6.7 mph - -  
8:00 PM 71.6 °F - 64.4 °F 78% 30.09 in - West 8.1 mph - N/A   Clear
8:30 PM 71.6 °F - 62.6 °F 73% 30.09 in - WNW 4.6 mph - N/A   Clear
9:00 PM 71 °F - 60 °F 61% 30.13 in - West 4.5 mph - -  
9:00 PM 69.8 °F - 62.6 °F 78% 30.09 in - West 4.6 mph - N/A   Clear
9:30 PM 69.8 °F - 64.4 °F 83% 30.12 in - WSW 4.6 mph - N/A   Clear
10:00 PM 68.0 °F - 64.4 °F 88% 30.12 in - WSW 5.8 mph - N/A   Clear
10:30 PM 68.0 °F - 64.4 °F 88% 30.12 in - West 5.8 mph - N/A   Clear
11:00 PM 68 °F - 63 °F 78% 30.14 in - West 4.5 mph - -  
11:00 PM 68.0 °F - 64.4 °F 88% 30.12 in - West 5.8 mph - N/A   Clear
11:30 PM 68.0 °F - 64.4 °F 88% 30.12 in - WNW 3.5 mph - N/A   Clear